Location: Le?nica
(50.8284°N, 20.2489°E)
Time: 05:59:01
(UTC+00:00)

Daily predictions for brighter satellites

Satellite Brightness Start Highest point End
(mag) Time Altitude Azimuth Time Altitude Azimuth Time Altitude Azimuth
Cosmos 1825 4.3 00:04:52 10° WSW 00:06:57 15° WNW 00:09:02 10° NNW
MOZ.5/SAFIR/RUBIN 5/SL-8 3.7 00:05:16 15° SSE 00:09:05 83° WSW 00:13:44 10° NNW
Meteor 1-11 4.3 00:07:24 18° S 00:11:49 89° E 00:17:39 10° NNE
NPP 4.2 00:09:48 10° NNE 00:15:05 52° E 00:19:43 13° S
Cosmos 2297 Rocket 3.9 00:10:42 10° W 00:15:29 28° NW 00:20:19 10° NNE
Cosmos 923 Rocket 4.2 00:10:45 10° NNW 00:15:55 57° WSW 00:20:13 14° S
NOSS 3-2 (A) 3.2 00:12:23 17° SW 00:16:36 88° SE 00:23:01 10° NE
ADEOS II 3.6 00:13:00 10° NE 00:17:33 29° E 00:22:05 10° SSE
Cosmos 2219 3.5 00:14:01 16° SW 00:18:35 62° NW 00:24:10 10° NNE
Aureole 1 Rocket 3.3 00:17:04 19° SW 00:19:37 53° WNW 00:24:11 10° NNE
NOSS 3-2 (C) 3.6 00:19:19 17° SSW 00:23:13 52° ESE 00:29:15 10° NE
Cosmos 2228 3.0 00:19:11 10° N 00:23:32 89° WSW 00:27:20 13° S
Cosmos 1937 Rocket 3.5 00:19:39 18° SSW 00:23:38 86° ESE 00:28:55 10° NNE
Cosmos 1544 Rocket 3.6 00:20:25 10° NNW 00:24:50 67° W 00:28:21 16° S
SL-16 R/B 3.6 00:19:48 10° SE 00:25:43 47° ENE 00:31:38 10° N
SL-8 Rocket 4.0 00:23:21 16° SSW 00:28:19 74° W 00:34:34 10° N
Cosmos 1898 Rocket 3.6 00:24:22 17° SW 00:28:23 68° WNW 00:33:34 10° NNE
ALOS 4.3 00:27:07 10° NE 00:30:38 21° E 00:34:06 10° SE
Cosmos 1606 3.0 00:27:45 10° NNW 00:31:10 43° W 00:33:25 19° SSW
H-2A R/B 4.4 00:29:46 10° NNW 00:32:05 14° NW 00:34:21 10° W
H-2A R/B 3.7 00:28:19 10° NNE 00:32:17 61° ESE 00:35:34 14° S
Resurs 1-4 Rocket 2.6 00:27:47 10° NNE 00:33:00 57° ESE 00:37:56 11° S
Cosmos 1975 Rocket 4.1 00:37:42 15° SW 00:40:52 34° WNW 00:44:55 10° N
Iridium 921 4.4 00:38:56 17° SSW 00:41:27 69° W 00:44:54 10° N
Cosmos 1727 Rocket 4.1 00:38:42 10° N 00:45:04 87° W 00:51:26 10° S
Cosmos 2263 Rocket 2.6 00:42:06 12° SW 00:47:05 54° NW 00:52:34 10° NNE
BlueWalker 3 2.4 00:47:06 10° WNW 00:50:49 61° N 00:54:32 10° E
Orbus 7S? 3.5 00:48:14 10° WNW 00:50:52 36° SW 00:54:52 10° SSE
Cosmos 921 Rocket 2.9 00:53:06 10° NNW 00:57:23 89° W 01:01:34 10° SSE
Cosmos 1680 Rocket 4.2 00:52:59 10° NW 00:57:41 35° WSW 01:02:17 10° SSW
Meteor 2-13 Rocket 4.5 00:53:25 10° NNW 00:59:29 69° W 01:05:32 10° S
Cosmos 1606 Rocket 3.7 00:55:51 10° N 01:00:20 82° E 01:04:45 10° SSE
Cosmos 724 4.5 00:54:33 10° NW 01:00:23 77° NE 01:06:14 10° SE
USA 234 3.8 00:56:38 10° E 01:03:07 66° NNE 01:09:36 10° WNW
Meteor 1-27 4.5 01:00:03 10° NNW 01:05:47 58° W 01:11:25 10° S
Cosmos 1844 Rocket 3.1 01:00:56 10° S 01:06:22 57° ESE 01:11:50 10° NE
Cosmos 1536 Rocket 3.8 01:06:18 12° SSW 01:10:23 57° WNW 01:14:45 10° N
Cosmos 1461 3.3 01:06:45 10° WSW 01:10:35 52° NW 01:14:24 10° NE
BREEZE-M R/B 4.4 01:02:58 10° WNW 01:12:04 70° SSW 01:17:47 10° ESE
Cosmos 1726 Rocket 3.6 01:11:03 10° N 01:15:32 87° E 01:19:56 10° S
Cosmos 2058 4.4 01:13:09 10° SSE 01:16:49 33° E 01:20:30 10° NNE
Cosmos 1238 Rocket 4.2 01:14:17 10° N 01:17:31 32° ENE 01:20:24 10° SE
CENTAUR R/B 3.7 01:13:52 10° W 01:19:48 43° NNW 01:27:09 10° NE
IDEFIX/ARIANE 42P 3.1 01:15:23 10° N 01:20:27 49° WNW 01:25:27 10° SW
SL-16 R/B 4.2 01:23:00 10° W 01:23:33 10° W 01:24:06 10° W
Meteor 1-28 Rocket 3.0 01:20:08 10° S 01:23:39 66° WSW 01:27:12 10° NNW
CZ-2C R/B 3.3 01:23:51 10° N 01:29:17 65° WNW 01:34:23 10° SSW
USA 238 DEB 3.7 01:23:15 10° SW 01:29:28 78° SE 01:36:20 10° NE
USA 238 3.7 01:23:17 10° SW 01:29:31 77° SE 01:36:23 10° NE
Cosmos 1603 4.2 01:24:09 10° NW 01:29:32 42° WSW 01:34:52 10° S
MSX 4.3 01:24:21 10° N 01:29:54 52° WNW 01:35:25 10° SW
Envisat 4.3 01:27:00 10° NNE 01:31:46 39° E 01:36:29 10° SSE
Cosmos 1607 4.1 01:26:25 10° NW 01:32:43 59° WSW 01:38:52 10° SSE
Cosmos 1821 Rocket 4.4 01:26:53 10° SSW 01:32:47 50° WNW 01:38:47 10° N
ASTEX 1 3.4 01:28:18 10° S 01:33:07 65° W 01:37:59 10° N
Cosmos 1048 Rocket 4.1 01:28:44 10° NNW 01:33:51 58° WSW 01:39:00 10° S
CZ-2C R/B 4.2 01:30:14 10° NE 01:34:02 25° E 01:37:50 10° SSE
CZ-2D R/B 2.6 01:30:47 10° N 01:35:59 51° WNW 01:41:04 10° SW
CZ-2C R/B 3.6 01:32:55 10° SSW 01:37:32 31° W 01:42:18 10° NNW
Cosmos 1943 4.3 01:33:51 10° NW 01:38:14 24° WSW 01:42:37 10° SSW
CZ-4C R/B 4.5 01:34:38 10° WNW 01:39:21 26° N 01:45:06 10° NE
Cosmos 1437 Rocket 3.5 01:35:55 10° SW 01:39:29 37° WNW 01:43:01 10° N
Cosmos 2227 Rocket 4.4 01:36:39 10° WNW 01:40:17 17° NNW 01:43:55 10° N
FENGYUN 3A 3.8 01:36:24 10° N 01:41:44 67° WNW 01:47:04 10° SSW
